Aeroporto :







RITROVATECI SU...

 
LOGIN :

Iscrizione | Disclaimer

   EN    FR    IT 

 









Sommario :    VFR   VFR Marginale   IFR   IFR Intensivo   IFR Molto Intensivo
Visibilità : 
Base nubi : 
>= 8 km
>= 3000ft
5 / 8 km
1000 / 3000 ft
1500m / 5 km
500 / 1000 ft
800 / 1500m
200 / 500 ft
< 800m
< 200 ft
Simboli :   Temporali  Nebbia  Neve Forte  Precipitazioni Forti  Vento > 20 kt






- Altitudine del aeroporto : 334 ft
- AEROPORTO CHIUSO.


KCWN - White Mountain

ULTIMO METAR :
  • 280358Z AUTO 29005KT 10SM BKN095 16/06 A3020 RMK AO2 LTG DSNT W SLP049 T01600060 PWINO $

METARs OBSOLETI :
  • 280258Z AUTO 31009KT 10SM BKN075 16/05 A3018 RMK AO2 LTG DSNT NE AND W SLP042 60001 T01620049 50020 PWINO $
  • 280158Z AUTO 34012KT 10SM OVC065 15/09 A3019 RMK AO2 LTG DSNT NE SLP061 P0001 T01450088 PWINO $

TAF N/A



MetMap, La meteo Aeronautica in un colpo d'occhio ! - Copyright ORBIFLY Dicembre 2007 - Disclaimer

ORBIFLY MET'MAP TEAM :

Programmazione e sviluppo : Alexandra Zaïnal
Concezione : Baudouin d'Aumeries
Aiuto per la programmazione : Marc-Olivier Méhu
Supporto tecnico e logistico : Manuel Goepfert
Aiuto per la traduzione : Arnaldo La Scala

Contatto : metmap@orbifly.com




FONTI E CREDITI :

   NOAA